[[{"header":{"parameterUnit":"m.s-1","parameterCategory":1,"la1":30.2991,"la2":30.254,"lo1":-89.0895,"lo2":-89.0444,"dy":0.0017,"dx":0.0017,"nx":28,"ny":28,"refTime":"2023-10-21T09:00:00:Z","depth":0,"parameterNumber":2,"parameterNumberName":"U-component_of_WINDS"},"data":[0,0,0,0,0,0,0,0,0,0,0,0,0,0,0,0,0,0,0,0,0,0,0,0,0,0,0,0,0,0,0,0,0,0,0,0,0,0,0,0,0,0,0,0,0,0,0,0,0,0,0,0,0,0,0,0,0,0,1.6404,1.6404,0,1.6452,1.6453,1.6453,1.6436,1.6435,1.6434,1.6433,1.6483,1.6485,1.6488,0,0,0,0,0,0,0,0,0,0,0,0,0,1.6297,1.6299,1.6404,1.6404,1.6405,1.6452,1.6453,1.6454,1.6436,1.6435,1.6433,1.6432,1.6482,1.6485,1.6488,0,0,0,0,0,0,0,0,0,0,0,0,0,1.6344,1.63,1.6404,1.6402,1.6402,1.6452,1.6453,1.6454,1.6436,1.6435,1.6433,1.6432,1.6481,1.6485,1.6488,1.6543,0,0,1.6499,1.6501,0,0,0,0,0,0,0,0,1.6341,1.6348,1.6401,1.6402,1.6403,1.6436,1.6434,1.6484,1.6437,1.6423,1.6433,1.6431,1.6469,1.6473,1.6486,1.6545,1.6547,1.6499,1.6501,1.6503,1.6504,0,0,0,0,0,0,0,1.6338,1.6346,1.6423,1.6402,1.6403,1.6399,1.6404,1.6443,1.6455,1.6424,1.6423,1.6429,1.6469,1.6483,1.6487,1.6548,1.6499,1.6502,1.6505,1.6506,1.6655,1.6657,0,0,0,0,0,0,1.6335,1.6343,1.6421,1.6424,1.6367,1.6402,1.6408,1.6427,1.6454,1.6457,1.6431,1.6428,1.6477,1.6483,1.6489,1.6555,1.6503,1.6506,1.6508,1.6654,1.6656,1.6658,0,0,0,0,0,0,1.6332,1.6342,1.6419,1.6384,1.6393,1.6406,1.6428,1.6429,1.6443,1.6459,1.6461,1.6442,1.6476,1.6484,1.653,1.6556,1.6508,1.6511,1.6651,1.6654,1.6657,1.6687,0,0,0,0,0,0,1.6329,1.6341,1.6361,1.6384,1.6395,1.6459,1.6429,1.6431,1.6449,1.6446,1.6471,1.6473,1.6476,1.6524,1.6533,1.656,1.6514,1.6649,1.6653,1.6656,1.6683,1.669,1.6696,0,0,0,0,0,1.6326,1.6368,1.6363,1.6372,1.6421,1.6461,1.6467,1.6469,1.6451,1.6472,1.6483,1.6472,1.6552,1.6529,1.6539,1.6567,1.6647,1.6652,1.6656,1.668,1.6689,1.6696,0,0,0,0,0,0,1.6348,1.6371,1.6365,1.6416,1.6436,1.6457,1.6484,1.6477,1.6503,1.65,1.6501,1.6507,1.6554,1.6566,1.654,1.6622,1.6597,1.6603,1.6613,1.6621,1.6627,1.6623,1.6517,0,0,0,0,0,1.6359,1.6389,1.6407,1.645,1.6461,1.6471,1.6488,1.6488,1.6509,1.6518,1.6532,1.6553,1.6583,1.6603,1.6631,1.6685,1.6691,1.671,1.6716,1.6721,1.6726,1.6756,1.6765,1.6671,1.6671,1.6671,0,0,1.6381,1.6397,1.6416,1.6455,1.6471,1.6502,1.6478,1.6512,1.6536,1.6523,1.6567,1.6578,1.6602,1.6653,1.6676,1.6664,1.6754,1.6726,1.673,1.6733,1.6762,1.677,1.6778,1.6674,1.6674,1.6673,0,0,1.6438,1.6453,1.6491,1.6508,1.6532,1.6539,1.6548,1.6571,1.6577,1.6622,1.6613,1.6642,1.6693,1.6711,1.6726,1.6792,1.6784,1.6801,1.6834,1.6863,1.687,1.6877,1.69,1.6909,1.6806,1.6807,1.6807,0,1.6463,1.6509,1.6511,1.6546,1.6564,1.6555,1.6593,1.6609,1.6642,1.6655,1.6641,1.6706,1.6721,1.6776,1.6792,1.6805,1.6816,1.6798,1.6869,1.6876,1.6882,1.6904,1.6913,1.6809,1.6808,1.6808,1.6808,0,1.6539,1.6571,1.6599,1.6631,1.6652,1.6688,1.6696,1.6717,1.6716,1.6724,1.677,1.6789,1.6821,1.6834,1.6833,1.6889,1.6881,1.6868,1.6843,1.6893,1.6914,1.6922,1.6811,1.6811,1.681,1.681,0,0,1.6609,1.6643,1.6653,1.6667,1.6695,1.672,1.6757,1.6788,1.6807,1.683,1.6861,1.6906,1.6894,1.6912,1.6913,1.6939,1.699,1.6923,1.6924,1.6935,1.7054,1.7062,1.7072,1.6985,1.6987,1.6988,1.7051,0,1.6668,1.6732,1.6735,1.6794,1.6824,1.6817,1.6849,1.6869,1.6878,1.6906,1.6916,1.6948,1.6931,1.6941,1.6967,1.6978,1.7014,1.6974,1.7014,1.7016,1.7008,1.7083,1.7092,1.7151,1.706,1.7061,1.7062,0,1.6744,1.677,1.6832,1.6855,1.6868,1.6897,1.6927,1.6953,1.6977,1.6982,1.7003,1.7,1.7039,1.7013,1.7067,1.7039,1.7057,1.7065,1.7067,1.707,1.7041,1.7088,1.7169,1.7178,1.7075,1.7074,1.7073,0,1.6789,1.684,1.6883,1.6896,1.6925,1.6945,1.6958,1.698,1.6999,1.7026,1.7038,1.7069,1.7086,1.711,1.7117,1.7097,1.717,1.7145,1.7175,1.7175,1.719,1.7189,1.7275,1.7202,1.7202,1.7202,1.7202,0,1.6854,1.6891,1.6903,1.693,1.6972,1.6977,1.7019,1.7031,1.7051,1.708,1.7076,1.7103,1.7111,1.714,1.7146,1.7189,1.7197,1.7202,1.7203,1.7202,1.7201,1.7212,1.7208,1.7204,1.7204,1.7203,1.7203,0,1.691,1.692,1.6966,1.699,1.6997,1.7028,1.7048,1.7074,1.7084,1.7121,1.713,1.7144,1.7179,1.7188,1.7229,1.7233,1.7284,1.7281,1.7276,1.7276,1.7306,1.7302,1.7401,1.7415,1.7334,1.7334,1.7335,0,1.695,1.6979,1.7006,1.7026,1.704,1.7071,1.709,1.7097,1.7117,1.7147,1.717,1.7204,1.7231,1.7287,1.7301,1.7333,1.7331,1.7363,1.7335,1.7334,1.7331,1.7329,1.7332,1.7368,1.7369,1.737,1.737,0,1.702,1.7024,1.7052,1.7083,1.7107,1.7131,1.7154,1.7171,1.718,1.7204,1.7239,1.7261,1.7303,1.7337,1.7369,1.7384,1.7379,1.7379,1.7388,1.7387,1.7382,1.7385,1.729,1.7377,1.7376,1.7376,1.7375,1.7375,1.7069,1.7095,1.7118,1.715,1.7169,1.7191,1.7217,1.723,1.7259,1.7294,1.7296,1.7335,1.7359,1.7402,1.7418,1.7449,1.7439,1.7452,1.7455,1.7458,1.746,1.7378,1.7455,1.7455,1.7454,1.7454,1.7454,0,1.7138,1.7154,1.7183,1.7216,1.7242,1.7236,1.7262,1.7284,1.7318,1.7341,1.7368,1.7409,1.7442,1.746,1.7494,1.7515,1.7514,1.7523,1.7521,1.7525,1.7467,1.7456,1.7524,1.7524,1.7524,1.7524,1.7524,1.7524,1.7177,1.722,1.7227,1.728,1.7295,1.7332,1.7348,1.7369,1.7387,1.7433,1.7461,1.7472,1.7494,1.7529,1.756,1.7564,1.7577,1.7588,1.7591,1.7536,1.7529,1.7522,1.7512,1.759,1.759,1.7646,1.7647,1.7647]},{"header":{"parameterUnit":"m.s-1","parameterCategory":1,"la1":30.2991,"la2":30.254,"lo1":-89.0895,"lo2":-89.0444,"dy":0.0017,"dx":0.0017,"nx":28,"ny":28,"refTime":"2023-10-21T09:00:00:Z","depth":0,"parameterNumber":3,"parameterNumberName":"V-component_of_WINDS"},"data":[0,0,0,0,0,0,0,0,0,0,0,0,0,0,0,0,0,0,0,0,0,0,0,0,0,0,0,0,0,0,0,0,0,0,0,0,0,0,0,0,0,0,0,0,0,0,0,0,0,0,0,0,0,0,0,0,0,0,1.8047,1.8047,0,1.809,1.809,1.8091,1.8066,1.8064,1.8063,1.8062,1.8104,1.8106,1.8108,0,0,0,0,0,0,0,0,0,0,0,0,0,1.7941,1.7943,1.8047,1.8047,1.8048,1.809,1.809,1.8091,1.8066,1.8064,1.8063,1.8061,1.8103,1.8106,1.8109,0,0,0,0,0,0,0,0,0,0,0,0,0,1.7985,1.7943,1.8047,1.804,1.804,1.809,1.809,1.8091,1.8066,1.8064,1.8062,1.8061,1.8102,1.8106,1.8109,1.8166,0,0,1.8119,1.8121,0,0,0,0,0,0,0,0,1.7983,1.7989,1.8041,1.8041,1.8041,1.8071,1.8068,1.8116,1.8067,1.8056,1.8062,1.806,1.8094,1.8098,1.811,1.8168,1.817,1.812,1.8122,1.8123,1.8124,0,0,0,0,0,0,0,1.798,1.7987,1.8064,1.8041,1.8042,1.8035,1.8039,1.8077,1.8085,1.8057,1.8055,1.8061,1.8094,1.8107,1.8111,1.8171,1.8119,1.8122,1.8125,1.8126,1.8279,1.8281,0,0,0,0,0,0,1.7978,1.7985,1.8062,1.8065,1.8007,1.8038,1.8043,1.8063,1.8084,1.8086,1.8062,1.8059,1.8102,1.8107,1.8112,1.8182,1.8123,1.8126,1.8128,1.8277,1.8279,1.8281,0,0,0,0,0,0,1.7975,1.7985,1.806,1.8025,1.8034,1.8042,1.8064,1.8065,1.8078,1.8088,1.8089,1.8075,1.8101,1.8108,1.8153,1.8183,1.8128,1.8131,1.8274,1.8278,1.828,1.832,0,0,0,0,0,0,1.7972,1.7984,1.8006,1.8025,1.8036,1.8102,1.8066,1.8067,1.8084,1.8081,1.81,1.8102,1.81,1.8149,1.8157,1.8186,1.8133,1.8272,1.8276,1.8279,1.8316,1.8324,1.8331,0,0,0,0,0,1.7969,1.8015,1.8008,1.8017,1.8064,1.8103,1.8109,1.8107,1.8086,1.8109,1.8116,1.8101,1.8178,1.8153,1.8162,1.8193,1.827,1.8275,1.8279,1.8313,1.8323,1.8331,0,0,0,0,0,0,1.7998,1.8017,1.8009,1.8063,1.8082,1.8099,1.8127,1.8117,1.8141,1.8137,1.8133,1.8137,1.8185,1.8194,1.8166,1.825,1.8221,1.8227,1.8243,1.8253,1.826,1.8257,1.8136,0,0,0,0,0,1.8011,1.8042,1.8057,1.8103,1.8113,1.8119,1.8136,1.8132,1.8151,1.8159,1.8169,1.8187,1.8216,1.8235,1.8261,1.8317,1.8321,1.8343,1.835,1.8356,1.8362,1.8393,1.8403,1.8297,1.8296,1.8296,0,0,1.8038,1.8052,1.8072,1.8109,1.8124,1.8156,1.8125,1.816,1.8184,1.8164,1.8208,1.8217,1.8237,1.8288,1.8311,1.8297,1.8393,1.8362,1.8367,1.8369,1.8399,1.8409,1.8418,1.83,1.8299,1.8299,0,0,1.8103,1.8117,1.8157,1.8172,1.8195,1.8198,1.8208,1.8227,1.8232,1.8277,1.8263,1.829,1.8339,1.8354,1.8368,1.844,1.8428,1.8449,1.8488,1.8518,1.8526,1.8534,1.856,1.8569,1.8455,1.8455,1.8455,0,1.8133,1.8181,1.8179,1.8215,1.8233,1.8217,1.8258,1.8272,1.8302,1.8314,1.8297,1.8359,1.8371,1.8427,1.8444,1.8456,1.8467,1.8447,1.8525,1.8533,1.854,1.8565,1.8575,1.8457,1.8457,1.8457,1.8457,0,1.8217,1.8251,1.8281,1.8311,1.8332,1.837,1.8373,1.8394,1.8389,1.8395,1.844,1.8455,1.8485,1.8497,1.8493,1.8552,1.8543,1.8526,1.8496,1.8552,1.8576,1.8585,1.8461,1.846,1.8459,1.8459,0,0,1.8302,1.8331,1.8342,1.8356,1.838,1.8406,1.8444,1.8474,1.8492,1.8513,1.8544,1.8587,1.8572,1.8588,1.8584,1.8611,1.8668,1.8591,1.8591,1.8605,1.8735,1.8748,1.876,1.866,1.8662,1.8663,1.8734,0,1.8369,1.8436,1.8435,1.8497,1.8528,1.8515,1.8548,1.8566,1.8572,1.8599,1.8605,1.8635,1.8613,1.8623,1.8648,1.8656,1.8694,1.8651,1.8689,1.8691,1.8685,1.8772,1.8785,1.8851,1.8743,1.8745,1.8746,0,1.8456,1.8481,1.8547,1.8567,1.858,1.861,1.8638,1.8664,1.8684,1.8687,1.8705,1.8698,1.8736,1.8705,1.8758,1.8728,1.8744,1.875,1.8753,1.8757,1.8722,1.8778,1.8872,1.8883,1.876,1.8759,1.8758,0,1.8511,1.8562,1.8608,1.862,1.8644,1.8666,1.8677,1.8696,1.8714,1.8738,1.875,1.8778,1.8794,1.8815,1.8816,1.8793,1.8869,1.8838,1.8873,1.8873,1.8889,1.8888,1.8988,1.8899,1.8899,1.8899,1.8898,0,1.8587,1.8627,1.8633,1.8661,1.8707,1.8706,1.875,1.8759,1.8776,1.8806,1.8795,1.8823,1.8822,1.885,1.885,1.8894,1.8901,1.8904,1.8904,1.8906,1.8905,1.8916,1.8912,1.8901,1.8901,1.89,1.89,0,1.8656,1.8662,1.8711,1.8731,1.8737,1.877,1.8786,1.8813,1.8818,1.8856,1.8865,1.8873,1.8906,1.8909,1.8946,1.8947,1.9,1.8994,1.8994,1.8993,1.9027,1.9024,1.9138,1.9153,1.9053,1.9054,1.9055,0,1.8704,1.8735,1.8759,1.8779,1.8791,1.8823,1.8842,1.8842,1.8862,1.8889,1.8912,1.8944,1.897,1.9023,1.9032,1.9061,1.9056,1.9094,1.906,1.9061,1.9058,1.9056,1.9059,1.91,1.9102,1.9102,1.9103,0,1.8788,1.879,1.8818,1.8849,1.8872,1.8896,1.8917,1.8934,1.8937,1.896,1.8994,1.9014,1.9053,1.9085,1.9114,1.9125,1.9115,1.9114,1.9123,1.9125,1.9124,1.9126,1.9012,1.9111,1.911,1.911,1.9109,1.9109,1.8849,1.8876,1.8898,1.893,1.8947,1.8968,1.8995,1.9004,1.9033,1.9066,1.9064,1.9101,1.9121,1.9159,1.9172,1.9201,1.9189,1.9202,1.9206,1.9209,1.9213,1.9119,1.9206,1.9206,1.9206,1.9206,1.9206,0,1.8933,1.8946,1.8976,1.9008,1.9034,1.9023,1.9047,1.9069,1.9103,1.9123,1.9149,1.9188,1.922,1.9232,1.9262,1.9283,1.928,1.9291,1.929,1.9293,1.9223,1.9212,1.9294,1.9294,1.9294,1.9294,1.9294,1.9294,1.898,1.9026,1.9031,1.9085,1.9098,1.9136,1.9151,1.917,1.9186,1.9231,1.9258,1.9266,1.9283,1.9315,1.9343,1.9346,1.9357,1.9372,1.9372,1.9307,1.9298,1.9289,1.9279,1.9374,1.9374,1.944,1.9441,1.9441]}]]